Time,TemperatureF,DewpointF,PressureIn,WindDirection,WindDirectionDegrees,WindSpeedMPH,WindSpeedGustMPH,Humidity,HourlyPrecipIn,Conditions,Clouds,dailyrainin,SoftwareType,DateUTC
2013-01-21 00:04:00,51.4,42.0,30.11,ENE,71,1.0,-999.0,71,-99.99,,,0.00,weatherlink.com 1.10,2013-01-21 06:04:00,
2013-01-21 00:19:00,51.5,42.0,30.11,ENE,71,0.0,-999.0,71,-99.99,,,0.00,weatherlink.com 1.10,2013-01-21 06:19:00,
2013-01-21 00:34:00,51.5,42.0,30.11,ENE,71,0.0,-999.0,71,-99.99,,,0.00,weatherlink.com 1.10,2013-01-21 06:34:00,
2013-01-21 00:49:00,51.7,43.0,30.11,ENE,71,0.0,-999.0,72,-99.99,,,0.00,weatherlink.com 1.10,2013-01-21 06:49:00,
2013-01-21 01:04:00,51.4,43.0,30.11,ENE,71,0.0,-999.0,72,-99.99,,,0.00,weatherlink.com 1.10,2013-01-21 07:04:00,
2013-01-21 01:19:00,49.8,42.0,30.11,ENE,71,0.0,-999.0,75,-99.99,,,0.00,weatherlink.com 1.10,2013-01-21 07:19:00,
2013-01-21 01:34:00,48.8,42.0,30.11,ENE,71,0.0,-999.0,78,-99.99,,,0.00,weatherlink.com 1.10,2013-01-21 07:34:00,
2013-01-21 01:49:00,48.4,43.0,30.12,ENE,71,0.0,-999.0,80,-99.99,,,0.00,weatherlink.com 1.10,2013-01-21 07:49:00,
2013-01-21 02:04:00,49.0,43.0,30.12,ENE,71,0.0,-999.0,81,-99.99,,,0.00,weatherlink.com 1.10,2013-01-21 08:04:00,
2013-01-21 02:19:00,49.1,44.0,30.12,ENE,71,0.0,-999.0,81,-99.99,,,0.00,weatherlink.com 1.10,2013-01-21 08:19:00,
2013-01-21 02:34:00,48.4,43.0,30.13,ENE,71,0.0,-999.0,81,-99.99,,,0.00,weatherlink.com 1.10,2013-01-21 08:34:00,
2013-01-21 02:49:00,47.3,42.0,30.13,ENE,71,0.0,-999.0,83,-99.99,,,0.00,weatherlink.com 1.10,2013-01-21 08:49:00,
2013-01-21 03:04:00,47.4,43.0,30.13,ENE,69,0.0,-999.0,83,-99.99,,,0.00,weatherlink.com 1.10,2013-01-21 09:04:00,
2013-01-21 03:19:00,46.9,42.0,30.13,ENE,69,0.0,-999.0,83,-99.99,,,0.00,weatherlink.com 1.10,2013-01-21 09:19:00,
2013-01-21 03:34:00,46.6,42.0,30.13,ENE,69,0.0,-999.0,84,-99.99,,,0.00,weatherlink.com 1.10,2013-01-21 09:34:00,
2013-01-21 03:49:00,46.9,42.0,30.14,ESE,115,3.0,-999.0,84,-99.99,,,0.00,weatherlink.com 1.10,2013-01-21 09:49:00,
2013-01-21 04:04:00,46.3,42.0,30.14,ESE,109,0.0,-999.0,84,-99.99,,,0.00,weatherlink.com 1.10,2013-01-21 10:04:00,
2013-01-21 04:19:00,46.1,42.0,30.13,NE,46,0.0,-999.0,85,-99.99,,,0.00,weatherlink.com 1.10,2013-01-21 10:19:00,
2013-01-21 04:35:00,47.3,43.0,30.14,South,171,0.0,-999.0,84,-99.99,,,0.00,weatherlink.com 1.10,2013-01-21 10:35:00,
2013-01-21 04:50:00,47.1,42.0,30.15,North,5,6.0,-999.0,82,-99.99,,,0.00,weatherlink.com 1.10,2013-01-21 10:50:00,
2013-01-21 05:05:00,45.9,40.0,30.16,North,360,2.0,-999.0,80,-99.99,,,0.00,weatherlink.com 1.10,2013-01-21 11:05:00,
2013-01-21 05:20:00,44.8,38.0,30.16,NE,44,2.0,-999.0,77,-99.99,,,0.00,weatherlink.com 1.10,2013-01-21 11:20:00,
2013-01-21 05:35:00,44.0,37.0,30.17,SSE,157,0.0,-999.0,75,-99.99,,,0.00,weatherlink.com 1.10,2013-01-21 11:35:00,
2013-01-21 05:50:00,43.2,35.0,30.18,ENE,67,0.0,-999.0,72,-99.99,,,0.00,weatherlink.com 1.10,2013-01-21 11:50:00,
2013-01-21 06:05:00,42.5,33.0,30.18,ESE,109,2.0,-999.0,70,-99.99,,,0.00,weatherlink.com 1.10,2013-01-21 12:05:00,
2013-01-21 06:20:00,41.9,33.0,30.19,ENE,71,0.0,-999.0,70,-99.99,,,0.00,weatherlink.com 1.10,2013-01-21 12:20:00,
2013-01-21 06:35:00,41.3,31.0,30.20,NE,53,0.0,-999.0,68,-99.99,,,0.00,weatherlink.com 1.10,2013-01-21 12:35:00,
2013-01-21 06:50:00,40.9,30.0,30.20,NE,49,3.0,-999.0,66,-99.99,,,0.00,weatherlink.com 1.10,2013-01-21 12:50:00,
2013-01-21 07:05:00,40.5,29.0,30.21,ENE,63,0.0,-999.0,64,-99.99,,,0.00,weatherlink.com 1.10,2013-01-21 13:05:00,
2013-01-21 07:20:00,40.2,28.0,30.21,East,95,0.0,-999.0,63,-99.99,,,0.00,weatherlink.com 1.10,2013-01-21 13:20:00,
2013-01-21 07:35:00,39.8,28.0,30.22,SSW,202,0.0,-999.0,63,-99.99,,,0.00,weatherlink.com 1.10,2013-01-21 13:35:00,
2013-01-21 07:50:00,39.5,27.0,30.23,NNE,29,5.0,-999.0,61,-99.99,,,0.00,weatherlink.com 1.10,2013-01-21 13:50:00,
2013-01-21 08:05:00,39.5,27.0,30.24,NW,323,0.0,-999.0,61,-99.99,,,0.00,weatherlink.com 1.10,2013-01-21 14:05:00,
2013-01-21 08:20:00,40.1,26.0,30.25,West,275,0.0,-999.0,57,-99.99,,,0.00,weatherlink.com 1.10,2013-01-21 14:20:00,
2013-01-21 08:35:00,40.8,26.0,30.25,NNW,345,0.0,-999.0,57,-99.99,,,0.00,weatherlink.com 1.10,2013-01-21 14:35:00,
2013-01-21 08:50:00,41.4,26.0,30.25,NNE,19,0.0,-999.0,55,-99.99,,,0.00,weatherlink.com 1.10,2013-01-21 14:50:00,
2013-01-21 09:05:00,41.3,26.0,30.25,WSW,240,2.0,-999.0,54,-99.99,,,0.00,weatherlink.com 1.10,2013-01-21 15:05:00,
2013-01-21 09:20:00,41.8,26.0,30.26,WNW,286,2.0,-999.0,54,-99.99,,,0.00,weatherlink.com 1.10,2013-01-21 15:20:00,
2013-01-21 09:35:00,42.0,26.0,30.26,North,349,0.0,-999.0,53,-99.99,,,0.00,weatherlink.com 1.10,2013-01-21 15:35:00,
2013-01-21 09:50:00,42.9,26.0,30.27,NW,308,0.0,-999.0,52,-99.99,,,0.00,weatherlink.com 1.10,2013-01-21 15:50:00,
2013-01-21 10:05:00,43.4,27.0,30.28,WSW,251,0.0,-999.0,52,-99.99,,,0.00,weatherlink.com 1.10,2013-01-21 16:05:00,
2013-01-21 10:20:00,44.4,27.0,30.28,WNW,283,0.0,-999.0,50,-99.99,,,0.00,weatherlink.com 1.10,2013-01-21 16:20:00,
2013-01-21 10:36:00,44.7,27.0,30.29,WSW,242,0.0,-999.0,51,-99.99,,,0.00,weatherlink.com 1.10,2013-01-21 16:36:00,
2013-01-21 10:51:00,44.9,27.0,30.29,WNW,294,0.0,-999.0,50,-99.99,,,0.00,weatherlink.com 1.10,2013-01-21 16:51:00,
2013-01-21 11:06:00,46.1,29.0,30.30,ESE,107,0.0,-999.0,51,-99.99,,,0.00,weatherlink.com 1.10,2013-01-21 17:06:00,
2013-01-21 11:21:00,46.7,29.0,30.29,WNW,294,0.0,-999.0,50,-99.99,,,0.00,weatherlink.com 1.10,2013-01-21 17:21:00,
2013-01-21 11:36:00,47.7,29.0,30.29,NNE,28,0.0,-999.0,49,-99.99,,,0.00,weatherlink.com 1.10,2013-01-21 17:36:00,
2013-01-21 11:51:00,48.0,30.0,30.28,ESE,117,0.0,-999.0,50,-99.99,,,0.00,weatherlink.com 1.10,2013-01-21 17:51:00,
2013-01-21 12:06:00,48.8,30.0,30.28,East,90,5.0,-999.0,49,-99.99,,,0.00,weatherlink.com 1.10,2013-01-21 18:06:00,
2013-01-21 12:21:00,49.1,31.0,30.27,NNW,330,0.0,-999.0,50,-99.99,,,0.00,weatherlink.com 1.10,2013-01-21 18:21:00,
2013-01-21 12:36:00,49.9,31.0,30.26,ESE,103,0.0,-999.0,49,-99.99,,,0.00,weatherlink.com 1.10,2013-01-21 18:36:00,
2013-01-21 12:51:00,50.3,32.0,30.25,NE,40,4.0,-999.0,50,-99.99,,,0.00,weatherlink.com 1.10,2013-01-21 18:51:00,
2013-01-21 13:06:00,51.3,33.0,30.25,NNE,15,0.0,-999.0,49,-99.99,,,0.00,weatherlink.com 1.10,2013-01-21 19:06:00,
2013-01-21 13:21:00,51.9,33.0,30.24,NNE,27,0.0,-999.0,49,-99.99,,,0.00,weatherlink.com 1.10,2013-01-21 19:21:00,
2013-01-21 13:36:00,52.9,33.0,30.23,ENE,75,0.0,-999.0,48,-99.99,,,0.00,weatherlink.com 1.10,2013-01-21 19:36:00,
2013-01-21 13:51:00,53.1,34.0,30.23,WNW,289,0.0,-999.0,48,-99.99,,,0.00,weatherlink.com 1.10,2013-01-21 19:51:00,
2013-01-21 14:06:00,53.5,34.0,30.23,NNE,21,1.0,-999.0,48,-99.99,,,0.00,weatherlink.com 1.10,2013-01-21 20:06:00,
2013-01-21 14:21:00,54.9,35.0,30.23,WSW,240,0.0,-999.0,47,-99.99,,,0.00,weatherlink.com 1.10,2013-01-21 20:21:00,
2013-01-21 14:36:00,54.3,34.0,30.23,WSW,252,0.0,-999.0,47,-99.99,,,0.00,weatherlink.com 1.10,2013-01-21 20:36:00,
2013-01-21 14:51:00,55.4,35.0,30.23,West,280,0.0,-999.0,46,-99.99,,,0.00,weatherlink.com 1.10,2013-01-21 20:51:00,
2013-01-21 15:06:00,55.5,35.0,30.22,East,94,3.0,-999.0,47,-99.99,,,0.00,weatherlink.com 1.10,2013-01-21 21:06:00,
2013-01-21 15:21:00,55.8,35.0,30.22,South,178,3.0,-999.0,46,-99.99,,,0.00,weatherlink.com 1.10,2013-01-21 21:21:00,
2013-01-21 15:36:00,56.5,36.0,30.22,North,360,3.0,-999.0,47,-99.99,,,0.00,weatherlink.com 1.10,2013-01-21 21:36:00,
2013-01-21 15:51:00,56.7,36.0,30.22,East,96,0.0,-999.0,47,-99.99,,,0.00,weatherlink.com 1.10,2013-01-21 21:51:00,
2013-01-21 16:06:00,56.6,37.0,30.21,ENE,78,0.0,-999.0,48,-99.99,,,0.00,weatherlink.com 1.10,2013-01-21 22:06:00,
2013-01-21 16:21:00,56.7,37.0,30.21,ENE,78,0.0,-999.0,48,-99.99,,,0.00,weatherlink.com 1.10,2013-01-21 22:21:00,
2013-01-21 16:36:00,56.5,37.0,30.21,ENE,69,2.0,-999.0,48,-99.99,,,0.00,weatherlink.com 1.10,2013-01-21 22:36:00,
2013-01-21 16:51:00,56.2,37.0,30.21,ENE,59,0.0,-999.0,49,-99.99,,,0.00,weatherlink.com 1.10,2013-01-21 22:51:00,
2013-01-21 17:06:00,55.8,37.0,30.21,NE,40,0.0,-999.0,49,-99.99,,,0.00,weatherlink.com 1.10,2013-01-21 23:06:00,
2013-01-21 17:21:00,55.4,37.0,30.21,NE,46,0.0,-999.0,50,-99.99,,,0.00,weatherlink.com 1.10,2013-01-21 23:21:00,
2013-01-21 17:36:00,55.1,37.0,30.20,ENE,59,0.0,-999.0,51,-99.99,,,0.00,weatherlink.com 1.10,2013-01-21 23:36:00,
2013-01-21 17:51:00,54.2,37.0,30.21,ENE,59,0.0,-999.0,53,-99.99,,,0.00,weatherlink.com 1.10,2013-01-21 23:51:00,
2013-01-21 18:06:00,53.6,37.0,30.22,ENE,59,0.0,-999.0,54,-99.99,,,0.00,weatherlink.com 1.10,2013-01-22 00:06:00,
2013-01-21 18:21:00,52.9,37.0,30.22,ENE,59,0.0,-999.0,55,-99.99,,,0.00,weatherlink.com 1.10,2013-01-22 00:21:00,
2013-01-21 18:36:00,52.4,36.0,30.22,ENE,59,0.0,-999.0,55,-99.99,,,0.00,weatherlink.com 1.10,2013-01-22 00:36:00,
2013-01-21 18:51:00,51.4,36.0,30.22,ENE,59,0.0,-999.0,57,-99.99,,,0.00,weatherlink.com 1.10,2013-01-22 00:51:00,
2013-01-21 19:06:00,50.5,36.0,30.21,ENE,59,0.0,-999.0,59,-99.99,,,0.00,weatherlink.com 1.10,2013-01-22 01:06:00,
2013-01-21 19:21:00,50.4,36.0,30.22,ENE,59,0.0,-999.0,58,-99.99,,,0.00,weatherlink.com 1.10,2013-01-22 01:21:00,
2013-01-21 19:36:00,50.1,36.0,30.22,ENE,59,0.0,-999.0,59,-99.99,,,0.00,weatherlink.com 1.10,2013-01-22 01:36:00,
2013-01-21 19:51:00,49.7,36.0,30.21,ENE,59,0.0,-999.0,60,-99.99,,,0.00,weatherlink.com 1.10,2013-01-22 01:51:00,
2013-01-21 20:06:00,48.7,36.0,30.22,ENE,59,0.0,-999.0,63,-99.99,,,0.00,weatherlink.com 1.10,2013-01-22 02:06:00,
2013-01-21 20:21:00,47.5,35.0,30.23,ENE,59,0.0,-999.0,63,-99.99,,,0.00,weatherlink.com 1.10,2013-01-22 02:21:00,
2013-01-21 20:36:00,47.0,35.0,30.23,ENE,59,0.0,-999.0,64,-99.99,,,0.00,weatherlink.com 1.10,2013-01-22 02:36:00,
2013-01-21 20:51:00,47.3,35.0,30.23,ENE,59,0.0,-999.0,63,-99.99,,,0.00,weatherlink.com 1.10,2013-01-22 02:51:00,
2013-01-21 21:07:00,47.2,35.0,30.24,ENE,59,0.0,-999.0,62,-99.99,,,0.00,weatherlink.com 1.10,2013-01-22 03:07:00,
2013-01-21 21:22:00,46.4,34.0,30.24,ENE,59,0.0,-999.0,62,-99.99,,,0.00,weatherlink.com 1.10,2013-01-22 03:22:00,
2013-01-21 21:37:00,46.1,33.0,30.25,ENE,59,0.0,-999.0,61,-99.99,,,0.00,weatherlink.com 1.10,2013-01-22 03:37:00,
2013-01-21 21:52:00,46.4,33.0,30.25,NE,48,0.0,-999.0,59,-99.99,,,0.00,weatherlink.com 1.10,2013-01-22 03:52:00,
2013-01-21 22:07:00,45.2,32.0,30.25,NE,48,0.0,-999.0,61,-99.99,,,0.00,weatherlink.com 1.10,2013-01-22 04:07:00,
2013-01-21 22:22:00,44.9,32.0,30.25,ENE,63,0.0,-999.0,60,-99.99,,,0.00,weatherlink.com 1.10,2013-01-22 04:22:00,
2013-01-21 22:37:00,45.0,30.0,30.25,ENE,71,0.0,-999.0,55,-99.99,,,0.00,weatherlink.com 1.10,2013-01-22 04:37:00,
2013-01-21 22:52:00,44.8,29.0,30.25,ENE,72,0.0,-999.0,54,-99.99,,,0.00,weatherlink.com 1.10,2013-01-22 04:52:00,
2013-01-21 23:07:00,44.6,28.0,30.25,ENE,71,3.0,-999.0,52,-99.99,,,0.00,weatherlink.com 1.10,2013-01-22 05:07:00,
2013-01-21 23:22:00,44.7,27.0,30.25,ENE,77,0.0,-999.0,50,-99.99,,,0.00,weatherlink.com 1.10,2013-01-22 05:22:00,
2013-01-21 23:37:00,44.3,26.0,30.25,ENE,57,0.0,-999.0,49,-99.99,,,0.00,weatherlink.com 1.10,2013-01-22 05:37:00,
2013-01-21 23:52:00,43.7,26.0,30.25,East,88,0.0,-999.0,50,-99.99,,,0.00,weatherlink.com 1.10,2013-01-22 05:52:00,